Showing default

ROBUSTA-3A, 60243

Orbit data source: Space-Track

ROBUSTA-3A, 60243 is a payload satellite owned by Montpellier (FR) in LEO that was launched on Tue, 09 Jul 2024 UTC via an ARIANE 62 launch vehicle from the French Guiana (FRGUI). Payload-class satellites include a variety of spacecraft equipped with specific instruments for various scientific and technological missions. These include communications satellites like Starlink; space stations such as the ISS; scientific satellites like the Hubble; Earth observation satellites from companies like Planet Labs, Umbra, and HawkEye 360; GPS; miniature CubeSats for education and research; and military/defense satellites.

Loading next visibility...
Identifier
60243, 2024-128J
Orbit
LEO
Last TLE update
13 hours ago
Origin
Manufacturer
Montpellier
Mission
Operational Amateur Technology
Bus & Motor
CUBESAT 3U, Unknown motor
Mass
5 kg wet, 5 kg dry
Launch date (UTC)
2024-07-09 (1 year ago)
Launch vehicle
ARIANE 62
Launch site
French Guiana (FRGUI)
Object type
Payload
Rocket body
Debris
Shape & HBR
Box + 4 Pan, 0.7 m
Radar Cross Section
0.072 m², Small (<0.1 m²)

Expand to show TLE details & history

TLE from 13 hours ago
0 ROBUSTA-3A
1 60243U 24128J   25181.83964673  .00005206  00000-0  36988-3 0  9995
2 60243  61.9898   4.2982 0052289  56.2166 304.3890 15.04900948 53426
Epoch: 2025-06-30T20:09Z
TLE epoch observation values (Epoch: 2025-06-30T20:09:05.477Z)
Latitude
-0.00002°
Longitude
142.88168°
Altitude
533.244 km
Speed
7.608 km/s
True Right ascension
00h 17m 11s
True Declination
0° 00' 00"
Sunlit
Object was in daylight at epoch
Visualization orbit readout
Latitude
45.40654°
Longitude
173.43849°
Altitude
521.265 km
Speed
7.628 km/s
Apparent Right ascension
05h 34m 23s
Apparent Declination
7° 13' 10"
Sunlit
Object is in daylight
Visualization observer readout
Local Sidereal Time
20:46:51
Azimuth
54.783° ENE
Elevation
-25.299°
Doppler factor
1
Orbital elements
Apogee altitude
586.969 km
Perigee altitude
514.509 km
Semi-major axis
6,928.876 km
Eccentricity
0.00523
Inclination
61.9898°
RAAN
4.2982°
Arg. of periapsis
56.2166°
True anomaly
Unknown
Mean anomaly
304.389°
Eccentric anomaly
Unknown
Mean motion
3.76313 °/min
Orbital period
95.67 mins
BSTAR
0.00036988
Loading maneuver chart data...
Loading SW <> Apogee altitude chart data...
Loading historical data...
Loading historical data...
Loading historical data...
Loading historical data...
Loading historical data...
Loading historical data...
Loading historical data...

ROBUSTA-3A Visibility forecast

Observer location: undefined°, undefined°

Span
Click to sort rows by Start time (UTC) header in descending order
Start Az.
Max El. time (UTC)
Max El. Az.
Max El.
End time (UTC)
End Az.
7 mins2025-07-01 13:49:37.641Z198.82° SSW2025-07-01 13:53:37.641Z98.774° ESE37.911°2025-07-01 13:56:37.641Z46.45° ENE
6 mins2025-07-01 22:11:37.641Z337.646° N2025-07-01 22:14:37.641Z62.351° ENE38.713°2025-07-01 22:17:37.641Z126.213° SE
|